Regional Weather Roundup
Issued by NWS Boston, MA

Current Version | Previous Version | Graphics & Text | Print | Product List | Glossary Off
Versions: 1 2 3 4 5 6 7 8 9 10 11 12 13 14 15 16 17 18 19 20 21 22 23 24 25 26 27 28 29 30 31 32 33 34 35 36 37 38 39 40 41 42 43 44 45 46 47 48 49 50
526 ASUS41 KBOX 222110 RWRBOX REGIONAL WEATHER ROUNDUP NATIONAL WEATHER SERVICE BOSTON/NORTON MA 500 PM EDT MON OCT 22 2018 NOTE: "FAIR" INDICATES FEW OR NO CLOUDS BELOW 12,000 FEET WITH NO SIGNIFICANT WEATHER AND/OR OBSTRUCTIONS TO VISIBILITY. MAZALL-222200- EASTERN MASSACHUSETTS CITY SKY/WX TMP DP RH WIND PRES REMARKS BOSTON MOCLDY 50 28 42 SW10 30.15S BEVERLY CLOUDY 49 28 44 SW10 30.13R LAWRENCE CLOUDY 52 27 38 S7 30.15R BEDFORD MOCLDY 46 30 53 S6 30.13S BLUE HILL N/A 44 29 55 W8 30.13S NORWOOD CLOUDY 50 31 48 W5 30.15S MARSHFIELD MOCLDY 48 30 49 SW5 30.16R PLYMOUTH CLOUDY 50 30 46 SW9 30.16S TAUNTON CLOUDY 49 30 48 SW5 30.16S NEW BEDFORD CLOUDY 49 32 52 W6 30.16S $$ MAZALL-222200- CAPE COD AND THE ISLANDS CITY SKY/WX TMP DP RH WIND PRES REMARKS FALMOUTH CLOUDY 48 30 49 W9 30.17S HYANNIS CLOUDY 49 31 49 W9 30.16R CHATHAM MOCLDY 48 31 51 VRB6 30.17F PROVINCETOWN FAIR 48 30 49 SW10 30.16F NANTUCKET CLOUDY 49 31 49 W10 30.18S MARTHAS VNYRD CLOUDY 48 37 65 W5 30.17F $$ MAZALL-222200- CENTRAL AND WESTERN MASSACHUSETTS CITY SKY/WX TMP DP RH WIND PRES REMARKS WORCESTER CLOUDY 43 30 60 SW10 30.13S FITCHBURG MOCLDY 46 28 49 SW8 30.14S ORANGE CLOUDY 48 28 46 SW6 30.13S SPRINGFIELD MOCLDY 47 31 53 S8 30.13S WESTFIELD CLOUDY 48 29 47 SW8 30.14S NORTH ADAMS CLOUDY 46 30 53 W5 30.11S PITTSFIELD CLOUDY 43 28 55 S7 30.09F $$ RIZALL-222200- RHODE ISLAND CITY SKY/WX TMP DP RH WIND PRES REMARKS PROVIDENCE MOCLDY 48 28 46 W10 30.17S NEWPORT FAIR 48 29 47 W8 30.16S BLOCK ISLAND CLOUDY 49 36 61 W9G20 N/A SMITHFIELD CLOUDY 46 29 51 W9 30.16R WESTERLY FAIR 49 31 49 VRB3 30.18F $$ CTZALL-222200- CONNECTICUT CITY SKY/WX TMP DP RH WIND PRES REMARKS BRADLEY INTL CLOUDY 48 29 47 SW7 30.15S HARTFORD CLOUDY 48 32 53 S6 30.16S BRIDGEPORT CLOUDY 51 33 50 W9 30.17F DANBURY CLOUDY 47 32 56 SW7 30.16F GROTON FAIR 49 32 52 W5 30.17F NEW HAVEN CLOUDY 51 32 48 VRB6 30.17F CHESTER MOCLDY 48 30 49 VRB3 30.16F MERIDEN CLOUDY 48 31 51 SW5 30.17S WILLIMANTIC CLOUDY 46 32 58 SW3 30.17S OXFORD CLOUDY 46 31 55 SW6 30.15F $$ MEZ002-015-021-024-NHZ003-005-008-011-012-014-VTZ005-008-222200- NORTHERN NEW ENGLAND CITY SKY/WX TMP DP RH WIND PRES REMARKS PORTLAND ME FAIR 47 22 37 W10 30.11R BANGOR ME FAIR 42 18 37 NW7 30.08R CONCORD NH FAIR 46 24 42 W5 30.11S MANCHESTER NH MOCLDY 49 25 39 S6 30.11S NASHUA NH MOCLDY 48 29 47 CALM 30.13S PORTSMOUTH NH MOCLDY 48 22 36 W5 30.12 JAFFREY NH CLOUDY 45 27 49 W6 30.11S KEENE NH N/A 46 28 49 S8 30.12 BURLINGTON VT MOCLDY 44 28 53 CALM 30.09F MT. WASHINGTON SNOWSHWR 14 14 100 W53G61 N/A VSB 0 WCI -12 $$ NYZ052-076-222200- EASTERN NEW YORK CITY SKY/WX TMP DP RH WIND PRES REMARKS ALBANY CLOUDY 47 32 56 S10 30.12S NEW YORK CITY PTSUNNY 52 30 43 SW9 30.17S $$ ANZALL-222200- MARINE OBSERVATIONS STATION/POSITION TIME TEMP WIND PRES VSBY WAVE AIR SEA DIR/SP/G HT/PER (UTC) (F) (DEG/KT/KT) (MB) (MI) (FT/S) BOSTON BUOY 2050 50 56 240/ 14/ 19 1020.3S 2/11 BUZZARDS BAY 2000 48 260/ 17/ 20 1022.0F NANTUCKET SOUND 2050 49 58 250/ 14/ 17 1021.6F 2/ 3 MASS BAY-STELLWA 2004 49 55 230/ 4/ 6 1019.7R 1 7/8 2/11 ISLE OF SHOALS 2100 48 300/ 8/ 10 1020.0R S OF BLOCK IS 2043 62 N/A 3/ 4 $$ ......................KEY......................... SKY/WX - SKY CONDITION/PRESENT WEATHER TMP - TEMPERATURE IN FAHRENHEIT DWPT - DEWPOINT IN FAHRENHEIT RH - RELATIVE HUMIDITY IN PERCENT WIND - DIRECTION AND SPEED IN MPH PRES - MEAN SEA LEVEL PRESSURE IN INCHES OF HG WCI - WIND CHILL INDEX VSB - VISIBILITY IN MILES HX - HEAT INDEX TC - TEMPERATURE IN CELSIUS VRB - VARIABLE WIND DIRECTION N/A - NOT AVAILABLE

USA.gov is the U.S. government's official web portal to all federal, state and local government web resources and services.